This is the latest recevied weather packets stored in our database for station/object EA3CO-11. If no packets are shown the sender has not sent any weather packets the latest 10 day(s).
| Time | Temp. | Humidity | Pressure | Rain* | Wind** | Luminosity | Snow |
|---|---|---|---|---|---|---|---|
| 1777696363 | 15.56° C | 84% | 1025.2 hPa | - | - | - | - |
| 1777695463 | 15.56° C | 85% | 1025.1 hPa | - | - | - | - |
| 1777694562 | 15.56° C | 87% | 1025.2 hPa | - | - | - | - |
| 1777693662 | 15.56° C | 87% | 1025.2 hPa | - | - | - | - |
| 1777692762 | 15.56° C | 88% | 1025.2 hPa | - | - | - | - |
| 1777691862 | 15.56° C | 88% | 1025.4 hPa | - | - | - | - |
| 1777690962 | 15.56° C | 87% | 1025.5 hPa | - | - | - | - |
| 1777690062 | 15.56° C | 86% | 1025.5 hPa | - | - | - | - |
| 1777689162 | 15.56° C | 85% | 1025.5 hPa | - | - | - | - |
| 1777688262 | 15.56° C | 85% | 1025.4 hPa | - | - | - | - |
| 1777687362 | 16.11° C | 86% | 1025.4 hPa | - | - | - | - |
| 1777686461 | 16.11° C | 87% | 1025.5 hPa | - | - | - | - |
| 1777685561 | 16.11° C | 91% | 1025.5 hPa | - | - | - | - |
| 1777684661 | 16.11° C | 90% | 1025.8 hPa | - | - | - | - |
| 1777683761 | 16.11° C | 81% | 1025.9 hPa | - | - | - | - |
| 1777682861 | 16.67° C | 79% | 1025.9 hPa | - | - | - | - |
| 1777681961 | 16.67° C | 78% | 1026.1 hPa | - | - | - | - |
| 1777681061 | 16.67° C | 77% | 1026.2 hPa | - | - | - | - |
| 1777680161 | 16.67° C | 76% | 1026.5 hPa | - | - | - | - |
| 1777679260 | 16.67° C | 76% | 1026.6 hPa | - | - | - | - |
| 1777678360 | 16.67° C | 75% | 1026.6 hPa | - | - | - | - |
| 1777677460 | 16.67° C | 74% | 1026.5 hPa | - | - | - | - |
| 1777676560 | 16.67° C | 75% | 1026.6 hPa | - | - | - | - |
| 1777675660 | 16.67° C | 77% | 1026.6 hPa | - | - | - | - |
| 1777674760 | 16.67° C | 84% | 1026.5 hPa | - | - | - | - |
* Rain since midnight (hover to see other rain measurements)
** Current wind speed in m/s (hover to see current wind gust speed)